Météo par heure à Dziaduszyce

Ce jour, 18 Janvier, Lundi

Heure Température Précipitation Vent Pression Humidité
00:00 -15°C° 0 mm 1 m/s 746 mmHg 93%
01:00 -16°C° 0 mm 2 m/s 745 mmHg 94%
02:00 -17°C° 0 mm 2 m/s 745 mmHg 94%
03:00 -17°C° 0 mm 2 m/s 745 mmHg 94%
04:00 -17°C° 0 mm 2 m/s 745 mmHg 93%
05:00 -15°C° 0 mm 1 m/s 745 mmHg 93%
06:00 -15°C° 0 mm 1 m/s 745 mmHg 93%
07:00 -15°C° 0 mm 1 m/s 746 mmHg 92%
08:00 -14°C° 0 mm 1 m/s 746 mmHg 90%
09:00 -13°C° 0 mm 1 m/s 746 mmHg 88%
10:00 -12°C° 0 mm 1 m/s 746 mmHg 86%
11:00 -11°C° 0 mm 1 m/s 746 mmHg 84%
12:00 -10°C° 0 mm 1 m/s 745 mmHg 82%
13:00 -9°C° 0 mm 1 m/s 745 mmHg 80%
14:00 -10°C° 0 mm 1 m/s 745 mmHg 82%
15:00 -10°C° 0 mm 1 m/s 745 mmHg 85%
16:00 -11°C° 0 mm 1 m/s 745 mmHg 88%
17:00 -11°C° 0 mm 1 m/s 745 mmHg 88%
18:00 -11°C° 0 mm 1 m/s 745 mmHg 88%
19:00 -11°C° 0 mm 1 m/s 744 mmHg 88%
20:00 -10°C° 0 mm 1 m/s 744 mmHg 88%
21:00 -10°C° 0 mm 1 m/s 744 mmHg 88%
22:00 -12°C° 0 mm 2 m/s 744 mmHg 88%
23:00 -10°C° 0 mm 2 m/s 744 mmHg 90%

Demain, 19 Janvier, Mardi

Heure Température Précipitation Vent Pression Humidité
00:00 -10°C° 0 mm 2 m/s 744 mmHg 92%
01:00 -9°C° 0 mm 2 m/s 744 mmHg 94%
02:00 -8°C° 0.1 mm 2 m/s 743 mmHg 94%
03:00 -9°C° 0.1 mm 3 m/s 743 mmHg 95%
04:00 -8°C° 0.1 mm 3 m/s 743 mmHg 95%
05:00 -7°C° 0.2 mm 3 m/s 742 mmHg 95%
06:00 -6°C° 0.2 mm 3 m/s 742 mmHg 94%
07:00 -7°C° 0.2 mm 4 m/s 742 mmHg 94%
08:00 -5°C° 0.2 mm 4 m/s 742 mmHg 94%
09:00 -5°C° 0.2 mm 5 m/s 742 mmHg 93%
10:00 -4°C° 0.2 mm 5 m/s 742 mmHg 93%
11:00 -2°C° 0.1 mm 5 m/s 742 mmHg 93%
12:00 -2°C° 0.1 mm 5 m/s 741 mmHg 93%
13:00 -1°C° 0.1 mm 4 m/s 741 mmHg 94%
14:00 -2°C° 0 mm 4 m/s 740 mmHg 92%
15:00 -1°C° 0 mm 3 m/s 740 mmHg 91%
16:00 -2°C° 0 mm 3 m/s 740 mmHg 89%
17:00 -2°C° 0.1 mm 3 m/s 740 mmHg 91%
18:00 -2°C° 0.1 mm 3 m/s 739 mmHg 92%
19:00 -3°C° 0.1 mm 4 m/s 739 mmHg 94%
20:00 -3°C° 0.1 mm 4 m/s 739 mmHg 93%
21:00 -3°C° 0.1 mm 4 m/s 738 mmHg 92%
22:00 -3°C° 0.1 mm 4 m/s 738 mmHg 92%
23:00 -3°C° 0.4 mm 4 m/s 738 mmHg 94%

Après-demain, 20 Janvier, Mercredi

Heure Température Précipitation Vent Pression Humidité
00:00 -3°C° 0.4 mm 4 m/s 737 mmHg 95%
01:00 -3°C° 0.4 mm 4 m/s 737 mmHg 97%
02:00 -2°C° 0.8 mm 5 m/s 737 mmHg 97%
03:00 -1°C° 0.8 mm 5 m/s 737 mmHg 97%
04:00 -1°C° 0.8 mm 5 m/s 737 mmHg 97%
05:00 0°C° 0.3 mm 5 m/s 737 mmHg 96%
06:00 0°C° 0.3 mm 5 m/s 737 mmHg 94%
07:00 0°C° 0.3 mm 4 m/s 737 mmHg 93%
08:00 0°C° 0 mm 4 m/s 737 mmHg 94%
09:00 0°C° 0 mm 4 m/s 737 mmHg 95%
10:00 0°C° 0 mm 4 m/s 737 mmHg 97%
11:00 0°C° 0 mm 4 m/s 737 mmHg 97%
12:00 +1°C° 0 mm 4 m/s 737 mmHg 97%
13:00 +1°C° 0 mm 4 m/s 737 mmHg 97%
14:00 +1°C° 0 mm 4 m/s 737 mmHg 94%
15:00 +1°C° 0 mm 3 m/s 737 mmHg 90%
16:00 +1°C° 0 mm 3 m/s 736 mmHg 87%
17:00 +1°C° 0 mm 3 m/s 737 mmHg 86%
18:00 +1°C° 0 mm 3 m/s 737 mmHg 84%
19:00 +1°C° 0 mm 3 m/s 737 mmHg 82%
20:00 0°C° 0 mm 3 m/s 737 mmHg 82%
21:00 0°C° 0 mm 3 m/s 737 mmHg 82%
22:00 -1°C° 0 mm 3 m/s 737 mmHg 82%
23:00 -1°C° 0 mm 3 m/s 737 mmHg 83%

21 Janvier, Jeudi

Heure Température Précipitation Vent Pression Humidité
00:00 -1°C° 0 mm 2 m/s 736 mmHg 83%
01:00 -2°C° 0 mm 2 m/s 736 mmHg 84%
02:00 -2°C° 0 mm 2 m/s 736 mmHg 84%
03:00 -2°C° 0 mm 2 m/s 736 mmHg 84%
04:00 -2°C° 0 mm 2 m/s 736 mmHg 84%
05:00 0°C° 0 mm 1 m/s 736 mmHg 84%
06:00 0°C° 0 mm 1 m/s 736 mmHg 84%
07:00 0°C° 0 mm 1 m/s 736 mmHg 85%
08:00 0°C° 0 mm 1 m/s 735 mmHg 87%
09:00 +1°C° 0 mm 1 m/s 735 mmHg 90%
10:00 +2°C° 0 mm 1 m/s 735 mmHg 92%
11:00 +3°C° 0 mm 1 m/s 734 mmHg 94%
12:00 +2°C° 0 mm 2 m/s 734 mmHg 96%
13:00 +2°C° 0 mm 2 m/s 734 mmHg 98%
14:00 +2°C° 0 mm 2 m/s 733 mmHg 94%
15:00 +2°C° 0 mm 2 m/s 733 mmHg 91%
16:00 +1°C° 0 mm 3 m/s 733 mmHg 87%
17:00 +1°C° 0 mm 3 m/s 733 mmHg 87%
18:00 +1°C° 0 mm 3 m/s 733 mmHg 87%
19:00 +1°C° 0 mm 3 m/s 733 mmHg 87%
20:00 +1°C° 0 mm 3 m/s 733 mmHg 87%
21:00 0°C° 0 mm 4 m/s 733 mmHg 86%
22:00 0°C° 0 mm 4 m/s 733 mmHg 86%
23:00 +1°C° 0 mm 3 m/s 732 mmHg 86%

22 Janvier, Vendredi

Heure Température Précipitation Vent Pression Humidité
00:00 +1°C° 0 mm 3 m/s 732 mmHg 86%
01:00 +2°C° 0 mm 2 m/s 732 mmHg 85%
02:00 +1°C° 0 mm 3 m/s 732 mmHg 86%
03:00 +1°C° 0 mm 3 m/s 731 mmHg 86%
04:00 +1°C° 0 mm 3 m/s 731 mmHg 87%
05:00 +1°C° 0 mm 3 m/s 730 mmHg 87%
06:00 +1°C° 0 mm 4 m/s 730 mmHg 87%
07:00 +1°C° 0 mm 4 m/s 729 mmHg 87%
08:00 +1°C° 0 mm 4 m/s 729 mmHg 90%
09:00 +1°C° 0 mm 4 m/s 729 mmHg 93%
10:00 +3°C° 0 mm 4 m/s 728 mmHg 96%
11:00 +3°C° 0 mm 4 m/s 728 mmHg 96%
12:00 +3°C° 0 mm 4 m/s 728 mmHg 96%
13:00 +4°C° 0 mm 3 m/s 728 mmHg 96%
14:00 +4°C° 0 mm 3 m/s 728 mmHg 94%
15:00 +3°C° 0 mm 3 m/s 728 mmHg 92%
16:00 +3°C° 0 mm 3 m/s 728 mmHg 90%
17:00 +4°C° 0.1 mm 2 m/s 729 mmHg 91%
18:00 +4°C° 0.1 mm 2 m/s 729 mmHg 92%
19:00 +3°C° 0.1 mm 2 m/s 729 mmHg 93%
20:00 +3°C° 1.7 mm 2 m/s 729 mmHg 94%
21:00 +4°C° 1.7 mm 1 m/s 729 mmHg 96%
22:00 +4°C° 1.7 mm 1 m/s 729 mmHg 97%
23:00 +2°C° 0.9 mm 2 m/s 729 mmHg 97%

23 Janvier, Samedi

Heure Température Précipitation Vent Pression Humidité
00:00 +1°C° 0.9 mm 3 m/s 730 mmHg 97%
01:00 +1°C° 0.9 mm 3 m/s 730 mmHg 98%
02:00 0°C° 0.2 mm 4 m/s 730 mmHg 98%
03:00 -1°C° 0.2 mm 4 m/s 730 mmHg 97%
04:00 -1°C° 0.2 mm 4 m/s 730 mmHg 97%
05:00 -1°C° 0.1 mm 4 m/s 730 mmHg 97%
06:00 0°C° 0.1 mm 3 m/s 731 mmHg 97%
07:00 0°C° 0.1 mm 3 m/s 731 mmHg 98%
08:00 0°C° 0.1 mm 3 m/s 731 mmHg 97%
09:00 0°C° 0.1 mm 3 m/s 732 mmHg 96%
10:00 0°C° 0.1 mm 3 m/s 732 mmHg 96%
11:00 +1°C° 0 mm 3 m/s 732 mmHg 94%
12:00 +2°C° 0 mm 2 m/s 732 mmHg 93%
13:00 +2°C° 0 mm 2 m/s 732 mmHg 92%
14:00 +2°C° 0 mm 2 m/s 732 mmHg 92%
15:00 +2°C° 0 mm 1 m/s 732 mmHg 92%
16:00 +2°C° 0 mm 1 m/s 732 mmHg 92%
17:00 +2°C° 0 mm 1 m/s 732 mmHg 92%
18:00 -1°C° 0 mm 2 m/s 732 mmHg 91%
19:00 -1°C° 0 mm 2 m/s 732 mmHg 91%
20:00 -1°C° 0 mm 2 m/s 732 mmHg 91%
21:00 -1°C° 0 mm 3 m/s 731 mmHg 90%
22:00 -1°C° 0 mm 3 m/s 731 mmHg 90%
23:00 -1°C° 0 mm 3 m/s 731 mmHg 89%
Voir plus

Nous avons besoin de votre consentement

Meteoprog et ses fournisseurs de services peuvent stocker et accéder à des données personnelles telles que des cookies, des identifiants d'appareils ou d'autres technologies similaires sur votre appareil et traiter ces données pour personnaliser le contenu et les publicités, ainsi que pour fournir des fonctionnalités de médias sociaux et analyser le trafic.

  • Stocker et/ou accéder à des informations sur votre appareil

    Des cookies, des identifiants d'appareils ou d'autres informations peuvent être stockés ou accessibles sur votre appareil aux fins indiquées ci-dessus.

  • Annonces et contenus personnalisés, mesure des annonces et des contenus, connaissance de l'audience et développement de produits

    Les annonces et le contenu peuvent être personnalisés en fonction d'un profil. D'autres données peuvent être ajoutées pour mieux personnaliser les annonces et le contenu. Les performances des publicités et du contenu peuvent être mesurées. Il est possible d'obtenir des informations sur le public qui a vu les publicités et le contenu. Ces données peuvent être utilisées pour développer ou améliorer l'expérience de l'utilisateur, les systèmes et les logiciels.

En cliquant sur "J'accepte", vous autorisez l'utilisation de cookies, des identifiants d'appareils, des balises web ou d'autres technologies similaires. Vos paramètres peuvent être modifiés dans le navigateur de votre appareil.

Dans certains cas, des intérêts légitimes peuvent être invoqués plutôt qu'un consentement. Vous pouvez en savoir plus à ce sujet dans notre Politique de confidentialité et de cookies.